map of PUJ home
PUJ - Airport
Location
City:  Punta Cana, La Altagracia, Dominican Republic
Near (Alt.):Higüey
Name:Punta Cana International Airport
ICAO:MDPC
IATA:PUJ

Details
Type:Airport (Aerodrome, Airfield)
Use:Public/Civil, International (customs port of entry)
Latitude:18°34'15"N (18.570781)
Longitude:68°21'58"W (-68.366185)
Elevation:47 ft (14 m)
Variation:12.22°W (WMM2015 magnetic declination)
-0.06° annual change
Runways:2
Longest:10171 × 148 ft (3100 × 45 m), paved

Time
Time Zone:UTC-4
Local Time:

Weather
METAR:MDPC 182300Z 08010KT 9999 SCT021 28/24 Q1016

Related Locations
Nearby:
Farthest:BWB: 12150 mi / 19554 km
Barrow Island, WA, AU

Find:

   beyond  
but within

Other Information
Maps:
NOTAMs:
Links:
Sources:

  
  • flag of Dominican Republic
  

Sectional Chart

Flight Planning
at skyvector.com

Satellite Image

Google Maps Satellite view

 

Copyright © 2004-2018 Karl L. Swartz. All rights reserved.
The Great Circle Mapper name and logo are trademarks of the Great Circle Mapper.
All other trademarks mentioned herein belong to their respective owners.
Please see credits for attibutions and further copyright information.

  Follow gcmap on Facebook Follow gcmap on Twitter Follow gcmap on Google+ GCmap on LinkedIn

hCard Microformat

Geo Microformat